SCP
0 0 0 0 0 0 0 0 0 0 0 0 0 0 0 0 0 0 0 0 0 0 0 0 0 0 0 0 0 0 0 0 0 0 0 0 0 0 0 0 0 0 0
0 0 0 0 0 0 0 0 0 0 0 0 0 0 0 0 0 0 0 0 0 0 0 0 0 0 0 0 0 0 0 0 0 0 0 0 0 0 0 0 0 0 0
0 0 0 0 0 0 0 0 0 0 0 0 0 0 0 0 0 0 0 0 0 0 0 0 0 0 0 0 0 0 0 0 0 0 0 0 0 0 0 0 0 0 0
0 0 0 0 0 0 0 0 0 0 0 0 0 0 0 0 0 0 0 0 0 0 0 0 0 0 0 0 0 0 0 0 0 0 0 0 0 0 0 0 0 0 0
0 0 0 0 0 0 0 0 0 0 0 0 0 0 0 0 0 0 0 0 0 0 0 0 0 0 0 0 0 0 0 0 0 0 0 0 0 0 0 0 0 0 0
-0 0 0 0 0 0 0 0 0 0 0 0 0 0 0 0 0 0 0 0 0 0 0 0 0 0 0 0 0 -0 -0 0 0 0 0 0 0 0 0 0 0 0 0
0 0 0 -0 -0 0 0 0 0 0 0 0 0 0 0 0 0 0 0 0 0 0 0 0 0 0 -0 0 -0 -0 0 0 0 0 0 0 0 0 0 0 0 0 0
-0 -0 0 -0 0 -0 0 -0 0 0 0 0 -0 0 0 0 -0 -0 0 0 0 0 0 -0 -0 -0 -0 -0 0 0 0 0 0 0 0 0 0 0 0 0 0 0 0
0 0 0 -0 0 0 -0 -0 -0 -0 -0 -0 -0 -0 -0 -0 -0 0 0 0 0 0 -0 -0 -0 -0 -0 0 0 0 0 0 0 0 0 0 0 0 0 0 0 0 0
0 0 0 -0 0 -0 -0 -0 -0 -0 -0 -0 0 0 -0 -0 -0 -0 -0 -0 -0 -0 -0 -0 -0 -0 -0 -0 0 0 0 0 0 0 0 0 0 0 0 0 0 0 0
0 0 0 -0 -0 -0 -0 -0 -0 0 0 0 0 0 0 0 0 -0 -0 -0 0 0 -0 -0 0 -0 -0 0 0 0 0 0 0 0 0 0 0 0 0 0 0 0 0
0 0 0 0 0 0 0 0 0 0 0 0 0 0 0 0 -0 -0 0 0 0 0 0 -0 -0 0 0 0 0 0 0 0 0 0 0 0 0 0 0 0 0 0 0
0 0 0 0 0 0 0 0 0 0 0 -0 -0 -0 -0 -0 -0 0 0 0 0 -0 -0 -0 -0 0 0 -0 0 0 0 0 0 0 0 0 0 0 0 0 0 0 0
0 0 0 0 0 0 0 0 0 0 0 0 0 0 -0 -0 -0 -0 -0 -0 -0 -0 -0 -0 0 0 0 0 0 0 0 0 0 0 0 0 0 0 0 0 0 0 0
-0 -0 -0 -0 0 0 -0 -0 -0 -0 -0 0 0 0 0 -0 -0 -0 0 0 0 0 0 0 0 0 0 0 0 0 0 0 0 0 0 0 0 0 0 0 0 0 0
0 0 -0 -0 0 0 0 0 -0 0 0 0 0 0 0 0 0 0 0 0 0 0 0 0 0 0 0 0 0 0 0 0 0 0 0 0 0 0 0 0 0 0 0
-0 -0 -0 0 0 0 0 0 0 0 0 0 0 0 0 0 0 0 0 0 0 0 0 0 0 0 0 0 0 0 0 0 0 0 0 0 -0 -0 -0 0 -0 -0 -0
0 0 0 0 0 0 0 0 0 0 0 0 0 0 0 0 0 0 0 0 0 0 0 0 0 0 0 0 0 0 0 0 0 0 0 0 -0 -0 -0 0 0 -0 -0
0 0 0 0 0 0 0 0 0 0 0 0 0 0 0 0 0 0 0 0 0 0 0 0 0 0 0 0 0 0 0 0 0 0 0 0 0 0 0 0 0 -0 -0
0 0 0 0 0 0 0 0 0 0 0 0 0 0 0 0 0 0 0 0 0 0 0 0 0 0 0 0 0 0 0 0 0 0 0 0 0 0 0 0 0 0 0
0 0 0 0 0 0 0 0 0 0 0 0 0 0 0 0 0 0 0 0 0 0 0 0 0 0 0 0 0 0 0 0 0 0 0 0 0 0 0 0 0 0 0
0 0 0 0 0 0 0 0 0 0 0 0 0 0 0 0 0 0 0 0 0 0 0 0 0 0 0 0 0 0 0 0 0 0 0 0 0 0 0 0 0 0 0
0 0 0 0 0 0 0 0 0 0 0 0 0 0 0 0 0 0 0 0 0 0 0 0 0 0 0 0 0 0 0 0 0 0 0 0 0 0 0 0 0 0 0
0 0 0 0 0 0 0 0 0 0 0 0 0 0 0 0 0 0 0 0 0 0 0 0 0 0 0 0 0 0 0 0 0 0 0 0 0 0 0 0 0 0 0
0 0 0 0 0 0 0 0 0 0 0 0 0 0 0 0 0 0 0 0 0 0 0 0 0 0 0 0 0 0 0 0 0 0 0 0 0 0 0 0 0 0 0
0 0 0 0 0 0 0 0 0 0 0 0 0 0 0 0 0 0 0 0 0 0 0 0 0 0 0 0 0 0 0 0 0 0 0 0 0 0 0 0 0 0 0
Wind_Speed_500mb
19 16 15 15 17 22 28 29 31 38 38 38 28 25 27 27 28 21 20 14 14 16 21 24 28 29 32 29 36 32 31 34 37 42 42 45 47 52 52 51 54 56 58
22 19 17 12 10 7 11 18 22 26 30 32 26 24 27 27 27 25 26 20 18 21 24 26 25 24 27 20 22 23 29 32 35 40 40 35 35 39 41 42 41 42 46
25 20 16 12 8 2 2 3 8 15 22 29 21 25 23 20 16 20 10 13 18 18 16 16 15 15 14 14 19 24 26 26 25 26 28 31 34 40 43 45 49 48 49
27 24 20 17 15 12 7 5 6 10 13 19 21 20 17 13 13 8 11 16 12 10 8 6 7 11 13 14 14 12 10 14 18 21 25 32 37 41 48 56 50 53 54
27 28 27 24 18 15 13 13 16 13 14 14 13 13 12 7 8 6 9 12 13 7 4 5 5 4 4 5 7 11 14 15 18 23 29 35 40 45 55 63 68 74 65
26 25 25 22 19 19 21 19 17 11 11 13 4 2 6 10 12 10 10 6 3 3 5 8 8 9 10 10 13 14 15 21 26 30 32 38 46 52 55 62 68 77 77
19 26 25 18 15 20 21 18 18 13 17 16 14 10 8 10 12 14 10 13 15 16 16 15 15 13 14 14 15 20 22 24 28 31 37 42 45 50 56 59 61 63 62
19 22 26 19 14 15 17 19 17 14 13 20 24 20 25 27 22 18 18 18 21 19 18 17 19 17 15 17 21 19 20 26 29 33 36 37 39 45 50 54 56 59 58
19 23 24 24 17 15 15 19 23 21 21 20 29 23 26 30 26 19 22 22 22 24 21 19 18 19 21 21 17 18 22 27 30 29 29 34 39 43 46 48 55 63 67
18 21 23 24 18 19 20 21 22 21 19 20 22 19 26 28 30 23 25 23 23 25 24 22 20 21 20 17 18 20 22 23 21 22 26 30 35 38 44 49 51 52 58
13 17 19 16 18 19 18 19 22 21 21 24 25 26 26 26 28 26 26 24 25 25 24 23 22 21 20 21 23 23 25 26 26 27 28 29 31 37 41 42 42 45 48
7 12 17 15 16 17 17 17 19 20 21 24 23 25 25 25 24 24 24 23 23 22 22 22 21 21 22 23 23 26 28 28 26 25 26 31 34 35 37 38 41 40 41
9 10 12 14 16 18 18 17 16 16 17 16 18 19 21 20 19 19 20 21 22 21 20 21 20 20 21 22 24 25 23 22 24 25 31 34 35 35 34 35 36 34 34
13 12 12 12 12 13 13 14 15 15 15 15 15 15 15 16 16 16 17 18 19 18 18 17 18 17 17 18 18 18 19 20 25 28 30 30 30 30 32 32 31 32 34
22 20 17 16 16 17 17 18 18 18 16 15 13 13 12 14 17 19 19 19 19 18 16 13 12 10 11 9 11 13 17 21 22 26 28 28 29 30 34 35 34 35 37
29 27 24 23 24 24 25 25 23 21 21 20 20 21 20 18 18 19 21 23 23 19 13 10 8 8 8 8 9 11 14 18 22 25 27 28 30 33 35 34 36 39 41
34 32 32 31 30 29 29 29 28 28 28 26 25 24 24 24 24 24 27 27 24 21 17 14 14 12 11 10 9 11 12 16 19 22 24 26 29 31 31 35 39 41 44
46 43 40 38 36 35 34 33 34 34 33 33 32 30 29 28 27 27 28 30 29 25 22 19 18 17 15 13 12 12 13 16 17 18 20 23 26 28 28 33 38 40 42
58 56 51 47 45 42 40 41 41 40 41 40 39 38 36 34 32 33 35 36 34 28 23 23 22 21 19 17 14 11 11 15 14 14 15 17 19 21 25 30 33 35 37
68 64 62 58 55 54 54 53 52 51 49 49 48 44 44 43 42 40 40 39 36 31 27 26 24 22 22 21 18 14 13 13 14 11 10 11 12 14 18 21 24 27 31
75 72 71 69 67 65 63 61 59 58 57 55 52 50 49 49 48 49 46 43 38 34 32 30 28 26 25 24 20 18 15 14 12 9 6 6 4 6 9 12 16 20 24
82 79 78 77 75 75 73 70 67 65 62 60 57 56 57 56 55 52 49 47 42 40 38 36 35 33 32 31 29 26 24 22 20 17 13 10 7 6 5 8 12 14 15
87 86 86 84 81 80 80 78 76 72 68 65 63 63 65 62 59 56 53 49 48 46 44 42 41 40 38 36 35 33 32 30 27 25 22 20 19 18 16 16 18 18 18
94 94 93 90 87 88 87 84 81 77 73 70 69 68 68 66 63 60 57 54 54 52 51 48 46 44 43 42 41 39 37 37 35 34 32 30 30 29 28 27 26 22 21
101 100 99 98 96 93 90 87 83 79 76 75 74 72 70 69 67 64 62 60 58 57 55 53 51 49 49 48 46 44 45 44 44 44 43 41 40 38 36 36 36 34 32
90 100 100 101 102 99 95 89 82 79 78 78 77 75 73 71 68 66 65 63 62 60 58 56 54 54 53 53 52 51 51 51 51 52 52 51 50 47 46 46 46 45 42
Wind_Direction_500mb
356 355 341 323 303 265 252 244 237 232 236 246 259 260 264 257 246 228 237 251 257 260 272 274 279 277 275 281 290 289 298 292 292 296 308 312 309 309 311 312 312 312 312
3 5 359 345 328 303 254 240 234 232 229 230 240 243 253 247 237 230 238 238 258 263 265 264 266 273 275 282 289 296 296 297 302 306 313 320 322 325 327 328 326 326 323
9 11 13 15 20 25 206 245 213 206 204 209 230 228 246 251 248 231 250 256 270 264 252 260 261 267 272 280 284 290 297 302 311 324 331 336 336 335 337 339 338 337 340
18 16 25 36 42 53 88 124 152 178 197 201 207 249 230 207 213 188 265 275 264 244 246 242 270 285 291 298 304 315 335 338 339 342 345 349 348 347 346 342 343 349 352
24 28 35 39 48 60 79 94 137 156 155 178 199 225 197 197 232 247 213 216 198 200 213 258 278 314 343 360 7 15 11 359 355 360 357 357 355 353 356 354 353 351 3
41 42 44 47 59 81 90 90 86 106 126 124 142 166 219 195 172 148 148 148 152 141 109 96 92 82 50 37 32 26 18 20 10 9 7 5 2 0 360 359 359 359 358
55 59 60 68 89 109 112 115 114 119 128 117 111 97 98 117 114 105 87 109 111 110 104 90 80 73 64 53 47 33 25 23 18 13 9 11 3 2 1 1 2 1 360
39 62 66 82 90 102 105 108 107 113 123 130 124 125 132 119 109 124 118 125 114 104 93 93 83 79 76 62 52 37 29 29 22 17 11 8 7 6 5 3 358 358 3
47 58 64 75 83 89 106 107 102 105 115 117 115 109 124 124 120 102 124 112 113 111 104 98 97 89 75 62 54 46 41 33 24 15 11 12 11 7 3 0 3 1 0
61 68 69 71 73 76 83 88 99 96 111 113 114 127 128 136 118 133 123 123 120 117 115 105 97 90 84 78 68 57 50 46 38 30 22 17 14 9 8 7 5 5 2
103 104 98 101 106 104 109 113 111 122 127 132 136 129 117 130 140 134 133 132 119 111 109 104 100 95 86 75 64 56 50 46 40 31 26 21 19 17 15 11 8 11 9
141 129 125 138 133 131 127 123 126 130 127 117 123 134 141 141 139 137 131 124 118 116 115 112 109 97 83 72 62 54 46 40 36 32 29 29 28 26 23 19 20 16 13
170 159 152 150 148 143 139 129 122 119 122 135 145 147 146 146 146 142 141 139 134 132 130 121 107 93 77 65 55 48 45 41 38 36 37 32 30 27 27 29 25 21 19
207 195 180 169 166 156 152 152 155 159 161 164 164 161 159 158 161 162 161 160 156 147 136 122 102 85 75 62 54 49 47 44 41 42 40 36 33 30 29 28 23 23 27
225 220 213 206 199 191 186 182 178 177 179 180 178 179 188 194 191 190 185 181 177 164 145 120 110 102 87 84 74 62 54 51 46 46 46 40 38 35 34 31 30 29 30
233 230 226 222 219 212 206 200 199 196 196 200 202 202 203 209 214 216 212 202 193 177 154 161 165 167 162 141 114 91 75 61 53 48 45 43 42 43 39 35 33 33 33
239 237 237 236 233 229 226 220 215 211 211 215 219 219 221 219 220 222 223 216 205 189 180 196 205 203 196 179 152 120 98 79 64 57 52 50 49 50 49 45 42 40 38
236 237 239 240 241 241 240 237 234 231 230 228 227 227 227 226 229 231 235 232 222 212 203 209 215 219 216 206 183 150 124 98 81 66 61 56 57 55 49 50 47 44 41
237 237 238 238 239 240 240 241 243 240 240 238 234 232 230 229 231 235 238 238 236 229 224 227 225 227 228 220 203 175 149 125 111 95 81 70 65 62 57 55 53 50 46
242 240 240 240 240 241 240 239 239 239 238 238 239 238 237 237 240 242 241 240 240 240 239 241 238 235 235 230 218 202 183 165 144 130 111 98 90 77 66 57 48 42 40
246 244 243 242 241 242 244 245 246 245 245 245 245 242 242 242 241 243 246 248 247 244 240 239 238 236 238 237 233 226 216 203 191 177 166 146 120 89 67 48 41 36 35
248 249 247 247 246 245 246 248 248 248 248 247 246 245 246 246 247 249 250 251 251 248 246 245 244 240 237 235 232 230 226 225 221 218 218 219 229 252 299 334 343 349 356
248 247 247 248 248 249 248 248 249 249 250 250 249 248 248 250 250 251 252 251 251 251 249 248 246 246 244 243 241 240 238 236 235 236 238 243 251 259 268 285 300 310 313
247 246 247 248 248 248 250 250 251 252 251 251 251 250 251 253 253 254 254 252 252 252 251 251 251 249 249 249 248 247 246 246 246 249 251 256 262 266 271 279 284 286 290
247 246 246 248 249 249 251 252 253 254 254 253 253 253 253 253 254 254 254 254 254 254 254 254 253 253 252 251 251 251 250 250 252 253 257 259 263 268 273 278 280 282 284
250 248 248 248 250 250 252 254 256 257 256 256 256 255 255 254 255 254 254 254 254 255 256 256 255 254 253 253 253 253 253 253 254 256 259 262 264 267 270 273 276 278 279
Wind_Speed_850mb
19 16 15 15 17 22 28 29 31 38 38 38 28 25 27 27 28 21 20 14 14 16 21 24 28 29 32 29 36 32 31 34 37 42 42 45 47 52 52 51 54 56 58
22 19 17 12 10 7 11 18 22 26 30 32 26 24 27 27 27 25 26 20 18 21 24 26 25 24 27 20 22 23 29 32 35 40 40 35 35 39 41 42 41 42 46
25 20 16 12 8 2 2 3 8 15 22 29 21 25 23 20 16 20 10 13 18 18 16 16 15 15 14 14 19 24 26 26 25 26 28 31 34 40 43 45 49 48 49
27 24 20 17 15 12 7 5 6 10 13 19 21 20 17 13 13 8 11 16 12 10 8 6 7 11 13 14 14 12 10 14 18 21 25 32 37 41 48 56 50 53 54
27 28 27 24 18 15 13 13 16 13 14 14 13 13 12 7 8 6 9 12 13 7 4 5 5 4 4 5 7 11 14 15 18 23 29 35 40 45 55 63 68 74 65
26 25 25 22 19 19 21 19 17 11 11 13 4 2 6 10 12 10 10 6 3 3 5 8 8 9 10 10 13 14 15 21 26 30 32 38 46 52 55 62 68 77 77
19 26 25 18 15 20 21 18 18 13 17 16 14 10 8 10 12 14 10 13 15 16 16 15 15 13 14 14 15 20 22 24 28 31 37 42 45 50 56 59 61 63 62
19 22 26 19 14 15 17 19 17 14 13 20 24 20 25 27 22 18 18 18 21 19 18 17 19 17 15 17 21 19 20 26 29 33 36 37 39 45 50 54 56 59 58
19 23 24 24 17 15 15 19 23 21 21 20 29 23 26 30 26 19 22 22 22 24 21 19 18 19 21 21 17 18 22 27 30 29 29 34 39 43 46 48 55 63 67
18 21 23 24 18 19 20 21 22 21 19 20 22 19 26 28 30 23 25 23 23 25 24 22 20 21 20 17 18 20 22 23 21 22 26 30 35 38 44 49 51 52 58
13 17 19 16 18 19 18 19 22 21 21 24 25 26 26 26 28 26 26 24 25 25 24 23 22 21 20 21 23 23 25 26 26 27 28 29 31 37 41 42 42 45 48
7 12 17 15 16 17 17 17 19 20 21 24 23 25 25 25 24 24 24 23 23 22 22 22 21 21 22 23 23 26 28 28 26 25 26 31 34 35 37 38 41 40 41
9 10 12 14 16 18 18 17 16 16 17 16 18 19 21 20 19 19 20 21 22 21 20 21 20 20 21 22 24 25 23 22 24 25 31 34 35 35 34 35 36 34 34
13 12 12 12 12 13 13 14 15 15 15 15 15 15 15 16 16 16 17 18 19 18 18 17 18 17 17 18 18 18 19 20 25 28 30 30 30 30 32 32 31 32 34
22 20 17 16 16 17 17 18 18 18 16 15 13 13 12 14 17 19 19 19 19 18 16 13 12 10 11 9 11 13 17 21 22 26 28 28 29 30 34 35 34 35 37
29 27 24 23 24 24 25 25 23 21 21 20 20 21 20 18 18 19 21 23 23 19 13 10 8 8 8 8 9 11 14 18 22 25 27 28 30 33 35 34 36 39 41
34 32 32 31 30 29 29 29 28 28 28 26 25 24 24 24 24 24 27 27 24 21 17 14 14 12 11 10 9 11 12 16 19 22 24 26 29 31 31 35 39 41 44
46 43 40 38 36 35 34 33 34 34 33 33 32 30 29 28 27 27 28 30 29 25 22 19 18 17 15 13 12 12 13 16 17 18 20 23 26 28 28 33 38 40 42
58 56 51 47 45 42 40 41 41 40 41 40 39 38 36 34 32 33 35 36 34 28 23 23 22 21 19 17 14 11 11 15 14 14 15 17 19 21 25 30 33 35 37
68 64 62 58 55 54 54 53 52 51 49 49 48 44 44 43 42 40 40 39 36 31 27 26 24 22 22 21 18 14 13 13 14 11 10 11 12 14 18 21 24 27 31
75 72 71 69 67 65 63 61 59 58 57 55 52 50 49 49 48 49 46 43 38 34 32 30 28 26 25 24 20 18 15 14 12 9 6 6 4 6 9 12 16 20 24
82 79 78 77 75 75 73 70 67 65 62 60 57 56 57 56 55 52 49 47 42 40 38 36 35 33 32 31 29 26 24 22 20 17 13 10 7 6 5 8 12 14 15
87 86 86 84 81 80 80 78 76 72 68 65 63 63 65 62 59 56 53 49 48 46 44 42 41 40 38 36 35 33 32 30 27 25 22 20 19 18 16 16 18 18 18
94 94 93 90 87 88 87 84 81 77 73 70 69 68 68 66 63 60 57 54 54 52 51 48 46 44 43 42 41 39 37 37 35 34 32 30 30 29 28 27 26 22 21
101 100 99 98 96 93 90 87 83 79 76 75 74 72 70 69 67 64 62 60 58 57 55 53 51 49 49 48 46 44 45 44 44 44 43 41 40 38 36 36 36 34 32
90 100 100 101 102 99 95 89 82 79 78 78 77 75 73 71 68 66 65 63 62 60 58 56 54 54 53 53 52 51 51 51 51 52 52 51 50 47 46 46 46 45 42
Wind_Direction_850mb
356 355 341 323 303 265 252 244 237 232 236 246 259 260 264 257 246 228 237 251 257 260 272 274 279 277 275 281 290 289 298 292 292 296 308 312 309 309 311 312 312 312 312
3 5 359 345 328 303 254 240 234 232 229 230 240 243 253 247 237 230 238 238 258 263 265 264 266 273 275 282 289 296 296 297 302 306 313 320 322 325 327 328 326 326 323
9 11 13 15 20 25 206 245 213 206 204 209 230 228 246 251 248 231 250 256 270 264 252 260 261 267 272 280 284 290 297 302 311 324 331 336 336 335 337 339 338 337 340
18 16 25 36 42 53 88 124 152 178 197 201 207 249 230 207 213 188 265 275 264 244 246 242 270 285 291 298 304 315 335 338 339 342 345 349 348 347 346 342 343 349 352
24 28 35 39 48 60 79 94 137 156 155 178 199 225 197 197 232 247 213 216 198 200 213 258 278 314 343 360 7 15 11 359 355 360 357 357 355 353 356 354 353 351 3
41 42 44 47 59 81 90 90 86 106 126 124 142 166 219 195 172 148 148 148 152 141 109 96 92 82 50 37 32 26 18 20 10 9 7 5 2 0 360 359 359 359 358
55 59 60 68 89 109 112 115 114 119 128 117 111 97 98 117 114 105 87 109 111 110 104 90 80 73 64 53 47 33 25 23 18 13 9 11 3 2 1 1 2 1 360
39 62 66 82 90 102 105 108 107 113 123 130 124 125 132 119 109 124 118 125 114 104 93 93 83 79 76 62 52 37 29 29 22 17 11 8 7 6 5 3 358 358 3
47 58 64 75 83 89 106 107 102 105 115 117 115 109 124 124 120 102 124 112 113 111 104 98 97 89 75 62 54 46 41 33 24 15 11 12 11 7 3 0 3 1 0
61 68 69 71 73 76 83 88 99 96 111 113 114 127 128 136 118 133 123 123 120 117 115 105 97 90 84 78 68 57 50 46 38 30 22 17 14 9 8 7 5 5 2
103 104 98 101 106 104 109 113 111 122 127 132 136 129 117 130 140 134 133 132 119 111 109 104 100 95 86 75 64 56 50 46 40 31 26 21 19 17 15 11 8 11 9
141 129 125 138 133 131 127 123 126 130 127 117 123 134 141 141 139 137 131 124 118 116 115 112 109 97 83 72 62 54 46 40 36 32 29 29 28 26 23 19 20 16 13
170 159 152 150 148 143 139 129 122 119 122 135 145 147 146 146 146 142 141 139 134 132 130 121 107 93 77 65 55 48 45 41 38 36 37 32 30 27 27 29 25 21 19
207 195 180 169 166 156 152 152 155 159 161 164 164 161 159 158 161 162 161 160 156 147 136 122 102 85 75 62 54 49 47 44 41 42 40 36 33 30 29 28 23 23 27
225 220 213 206 199 191 186 182 178 177 179 180 178 179 188 194 191 190 185 181 177 164 145 120 110 102 87 84 74 62 54 51 46 46 46 40 38 35 34 31 30 29 30
233 230 226 222 219 212 206 200 199 196 196 200 202 202 203 209 214 216 212 202 193 177 154 161 165 167 162 141 114 91 75 61 53 48 45 43 42 43 39 35 33 33 33
239 237 237 236 233 229 226 220 215 211 211 215 219 219 221 219 220 222 223 216 205 189 180 196 205 203 196 179 152 120 98 79 64 57 52 50 49 50 49 45 42 40 38
236 237 239 240 241 241 240 237 234 231 230 228 227 227 227 226 229 231 235 232 222 212 203 209 215 219 216 206 183 150 124 98 81 66 61 56 57 55 49 50 47 44 41
237 237 238 238 239 240 240 241 243 240 240 238 234 232 230 229 231 235 238 238 236 229 224 227 225 227 228 220 203 175 149 125 111 95 81 70 65 62 57 55 53 50 46
242 240 240 240 240 241 240 239 239 239 238 238 239 238 237 237 240 242 241 240 240 240 239 241 238 235 235 230 218 202 183 165 144 130 111 98 90 77 66 57 48 42 40
246 244 243 242 241 242 244 245 246 245 245 245 245 242 242 242 241 243 246 248 247 244 240 239 238 236 238 237 233 226 216 203 191 177 166 146 120 89 67 48 41 36 35
248 249 247 247 246 245 246 248 248 248 248 247 246 245 246 246 247 249 250 251 251 248 246 245 244 240 237 235 232 230 226 225 221 218 218 219 229 252 299 334 343 349 356
248 247 247 248 248 249 248 248 249 249 250 250 249 248 248 250 250 251 252 251 251 251 249 248 246 246 244 243 241 240 238 236 235 236 238 243 251 259 268 285 300 310 313
247 246 247 248 248 248 250 250 251 252 251 251 251 250 251 253 253 254 254 252 252 252 251 251 251 249 249 249 248 247 246 246 246 249 251 256 262 266 271 279 284 286 290
247 246 246 248 249 249 251 252 253 254 254 253 253 253 253 253 254 254 254 254 254 254 254 254 253 253 252 251 251 251 250 250 252 253 257 259 263 268 273 278 280 282 284
250 248 248 248 250 250 252 254 256 257 256 256 256 255 255 254 255 254 254 254 254 255 256 256 255 254 253 253 253 253 253 253 254 256 259 262 264 267 270 273 276 278 279